Stündliche Wetter Cedzyna

Heute, 24 Januar, Sonntag

Zeit Temperatur Niederschläge Wind Luftdruck Luftfeuchtigkeit
00:00 +1°C° 0 mm 2 m/S 723 mmHg 89%
01:00 -1°C° 0 mm 2 m/S 724 mmHg 88%
02:00 -1°C° 0 mm 2 m/S 723 mmHg 88%
03:00 -1°C° 0 mm 2 m/S 723 mmHg 87%
04:00 -1°C° 0 mm 2 m/S 723 mmHg 86%
05:00 -1°C° 0.2 mm 2 m/S 723 mmHg 89%
06:00 -1°C° 0.2 mm 2 m/S 723 mmHg 91%
07:00 -2°C° 0.2 mm 2 m/S 723 mmHg 93%
08:00 -2°C° 0.1 mm 2 m/S 723 mmHg 93%
09:00 -1°C° 0.1 mm 2 m/S 723 mmHg 94%
10:00 +1°C° 0.1 mm 1 m/S 723 mmHg 94%
11:00 -1°C° 0.5 mm 2 m/S 723 mmHg 95%
12:00 -1°C° 0.5 mm 2 m/S 723 mmHg 96%
13:00 -1°C° 0.5 mm 2 m/S 723 mmHg 96%
14:00 -1°C° 0.4 mm 2 m/S 724 mmHg 96%
15:00 -1°C° 0.4 mm 2 m/S 724 mmHg 96%
16:00 -1°C° 0.4 mm 2 m/S 724 mmHg 97%
17:00 -1°C° 0 mm 2 m/S 724 mmHg 96%
18:00 -2°C° 0 mm 2 m/S 725 mmHg 96%
19:00 -2°C° 0 mm 2 m/S 725 mmHg 96%
20:00 -2°C° 0 mm 2 m/S 725 mmHg 96%
21:00 -2°C° 0 mm 2 m/S 725 mmHg 95%
22:00 -2°C° 0 mm 2 m/S 725 mmHg 95%
23:00 -1°C° 0 mm 1 m/S 725 mmHg 96%

Morgen, 25 Januar, Montag

Zeit Temperatur Niederschläge Wind Luftdruck Luftfeuchtigkeit
00:00 -1°C° 0 mm 1 m/S 725 mmHg 96%
01:00 -1°C° 0 mm 1 m/S 725 mmHg 96%
02:00 -1°C° 0 mm 1 m/S 726 mmHg 96%
03:00 -1°C° 0 mm 1 m/S 726 mmHg 95%
04:00 -1°C° 0 mm 1 m/S 726 mmHg 95%
05:00 -1°C° 0 mm 1 m/S 727 mmHg 94%
06:00 -1°C° 0 mm 1 m/S 727 mmHg 94%
07:00 -1°C° 0 mm 1 m/S 727 mmHg 93%
08:00 0°C° 0 mm 1 m/S 728 mmHg 90%
09:00 -2°C° 0 mm 2 m/S 728 mmHg 88%
10:00 -1°C° 0 mm 2 m/S 728 mmHg 85%
11:00 -1°C° 0 mm 3 m/S 728 mmHg 85%
12:00 -1°C° 0 mm 3 m/S 728 mmHg 84%
13:00 -1°C° 0 mm 4 m/S 728 mmHg 83%
14:00 -2°C° 0 mm 4 m/S 728 mmHg 83%
15:00 -2°C° 0 mm 5 m/S 729 mmHg 84%
16:00 -4°C° 0 mm 5 m/S 729 mmHg 84%
17:00 -4°C° 0 mm 5 m/S 729 mmHg 83%
18:00 -4°C° 0 mm 5 m/S 729 mmHg 82%
19:00 -4°C° 0 mm 5 m/S 730 mmHg 81%
20:00 -4°C° 0 mm 5 m/S 730 mmHg 82%
21:00 -4°C° 0 mm 6 m/S 730 mmHg 84%
22:00 -5°C° 0 mm 6 m/S 730 mmHg 85%
23:00 -5°C° 0 mm 6 m/S 730 mmHg 85%

übermorgen, 26 Januar, Dienstag

Zeit Temperatur Niederschläge Wind Luftdruck Luftfeuchtigkeit
00:00 -4°C° 0 mm 6 m/S 730 mmHg 84%
01:00 -4°C° 0 mm 6 m/S 730 mmHg 84%
02:00 -5°C° 0 mm 6 m/S 730 mmHg 83%
03:00 -5°C° 0 mm 6 m/S 730 mmHg 83%
04:00 -5°C° 0 mm 6 m/S 730 mmHg 82%
05:00 -6°C° 0 mm 7 m/S 730 mmHg 83%
06:00 -6°C° 0 mm 7 m/S 730 mmHg 83%
07:00 -6°C° 0 mm 7 m/S 730 mmHg 84%
08:00 -6°C° 0 mm 7 m/S 730 mmHg 83%
09:00 -6°C° 0 mm 7 m/S 731 mmHg 83%
10:00 -4°C° 0 mm 7 m/S 731 mmHg 83%
11:00 -4°C° 0 mm 7 m/S 731 mmHg 83%
12:00 -4°C° 0 mm 7 m/S 731 mmHg 82%
13:00 -4°C° 0 mm 7 m/S 731 mmHg 81%
14:00 -4°C° 0 mm 7 m/S 731 mmHg 82%
15:00 -4°C° 0 mm 7 m/S 732 mmHg 83%
16:00 -4°C° 0 mm 7 m/S 732 mmHg 84%
17:00 -4°C° 0.1 mm 7 m/S 732 mmHg 86%
18:00 -4°C° 0.1 mm 7 m/S 733 mmHg 88%
19:00 -4°C° 0.1 mm 7 m/S 733 mmHg 89%
20:00 -4°C° 0.1 mm 7 m/S 733 mmHg 87%
21:00 -6°C° 0.1 mm 7 m/S 733 mmHg 84%
22:00 -5°C° 0.1 mm 6 m/S 733 mmHg 81%
23:00 -5°C° 0 mm 6 m/S 733 mmHg 81%

27 Januar, Mittwoch

Zeit Temperatur Niederschläge Wind Luftdruck Luftfeuchtigkeit
00:00 -5°C° 0 mm 6 m/S 734 mmHg 81%
01:00 -5°C° 0 mm 6 m/S 734 mmHg 80%
02:00 -5°C° 0 mm 6 m/S 733 mmHg 81%
03:00 -5°C° 0 mm 6 m/S 733 mmHg 82%
04:00 -5°C° 0 mm 5 m/S 733 mmHg 82%
05:00 -5°C° 0 mm 5 m/S 733 mmHg 83%
06:00 -5°C° 0 mm 5 m/S 733 mmHg 84%
07:00 -5°C° 0 mm 5 m/S 733 mmHg 85%
08:00 -5°C° 0 mm 5 m/S 733 mmHg 84%
09:00 -4°C° 0 mm 4 m/S 733 mmHg 83%
10:00 -3°C° 0 mm 4 m/S 733 mmHg 82%
11:00 -3°C° 0 mm 4 m/S 733 mmHg 79%
12:00 -2°C° 0 mm 4 m/S 733 mmHg 77%
13:00 -2°C° 0 mm 4 m/S 733 mmHg 74%
14:00 -1°C° 0 mm 3 m/S 733 mmHg 77%
15:00 -1°C° 0 mm 3 m/S 733 mmHg 79%
16:00 -2°C° 0 mm 2 m/S 733 mmHg 82%
17:00 -2°C° 0 mm 2 m/S 733 mmHg 85%
18:00 -2°C° 0 mm 2 m/S 733 mmHg 89%
19:00 -3°C° 0 mm 2 m/S 733 mmHg 93%
20:00 -3°C° 0.2 mm 2 m/S 734 mmHg 94%
21:00 0°C° 0.2 mm 1 m/S 734 mmHg 96%
22:00 0°C° 0.2 mm 1 m/S 734 mmHg 97%
23:00 -1°C° 0.1 mm 1 m/S 734 mmHg 97%

28 Januar, Donnerstag

Zeit Temperatur Niederschläge Wind Luftdruck Luftfeuchtigkeit
00:00 -1°C° 0.1 mm 1 m/S 734 mmHg 97%
01:00 -1°C° 0.1 mm 1 m/S 734 mmHg 97%
02:00 -1°C° 0 mm 1 m/S 735 mmHg 97%
03:00 -3°C° 0 mm 2 m/S 735 mmHg 96%
04:00 -3°C° 0 mm 2 m/S 735 mmHg 96%
05:00 -3°C° 0 mm 2 m/S 735 mmHg 95%
06:00 -3°C° 0 mm 2 m/S 735 mmHg 95%
07:00 -3°C° 0 mm 2 m/S 735 mmHg 94%
08:00 -3°C° 0 mm 2 m/S 735 mmHg 92%
09:00 -2°C° 0 mm 2 m/S 735 mmHg 89%
10:00 -2°C° 0 mm 2 m/S 735 mmHg 87%
11:00 -1°C° 0 mm 2 m/S 735 mmHg 86%
12:00 -1°C° 0 mm 2 m/S 734 mmHg 84%
13:00 -1°C° 0 mm 2 m/S 734 mmHg 83%
14:00 -1°C° 0 mm 2 m/S 734 mmHg 85%
15:00 -2°C° 0 mm 2 m/S 733 mmHg 88%
16:00 -2°C° 0 mm 2 m/S 733 mmHg 90%
17:00 -2°C° 0.2 mm 2 m/S 733 mmHg 92%
18:00 -2°C° 0.2 mm 2 m/S 732 mmHg 94%
19:00 -2°C° 0.2 mm 2 m/S 732 mmHg 96%

29 Januar, Freitag

Zeit Temperatur Niederschläge Wind Luftdruck Luftfeuchtigkeit
Mehr zeigen

Wir brauchen deine Erlaubnis

Meteoprog und unser Service Anbieter werden persönliche Daten aufbewahren, so wie Cookies, Geräte Bezeichnung oder ähnliche Technologien von deinem Gerät und Prozess, so wie Persönliche Daten Inhalte und Werbungen, genauso wie social Media und den Verkehr zu analysieren.

  • Aufbewahrung und/oder Zugang zu deiner Geräte Informationen.

    Cookies, Geräte Bezeichnung oder andere Informationen, können aufbewahrt oder Zugang zu deinem Gerät erhalten, für den Grund, der oben angegeben wird.

  • Personalisierte Werbung und Inhalte, Messungen, Einblick in das Publikum und Produkt Entwicklung.

    Werbungen und Inhalte können personalisiert werden, basierend auf ein Profil. Mehr Daten können besser personalisierte Werbungen und Inhalte hinzufügen. Werbung und Inhalte können gezeigt und gemessen werden. Einblicke über das Publikum, welche die Werbung gesehen haben und den Inhalt, können abgeleitet werden. So wie Daten können genutzt werden, um es zu verbessern oder die Benutzer Erfahrung zu verbessern das System und die Software.

Wenn du “Ich stimme zu” klickst, erlaubst du uns, die Cookies zu benutzen die Geräte Bezeichnung, den Web oder ähnliche Technologien zu benutzen. Deine Settings, können in deinem Gerät bei deinem Browser geändert werden.

Für den bestimmten Zweck, berechtigten Interessen beruhen darauf, mehr als auf den Inhalt. Du kannst mehr darüber in unseren Privaten und Cookie Politik lesen.